Regional Weather Roundup
Issued by NWS

Home | Current Version | Previous Version | Text Only | Print | Product List | Glossary Off
Versions: 1 2 3 4 5 6 7 8 9 10 11 12 13 14 15 16 17 18 19 20 21 22 23 24 25 26 27 28 29 30 31 32 33 34 35 36 37 38 39 40 41 42 43 44 45 46 47 48 49 50

000
ASUS45 KABQ 041110
RWRNM
NEW MEXICO REGIONAL WEATHER ROUNDUP
NATIONAL WEATHER SERVICE ALBUQUERQUE NM
500 AM MDT TUE AUG 04 2015

NOTE: "FAIR" MEANS FEW OR NO CLOUDS BELOW 12,000 FEET AGL WITH NO
       SIGNIFICANT WEATHER OR OBSTRUCTIONS TO VISION.

      THIS PRODUCT IS RELEASED AS TWO VERSIONS.  ONE VERSION NEAR
      THE TOP OF THE HOUR CONTAINING PRELIMINARY DATA FROM ALBUQUERQUE
      AND OTHER STATIONS.  A FINAL VERSION WITH ADDITIONAL DATA IS
      ISSUED ABOUT 10 MINUTES AFTER THE HOUR.

NMZ501-503-504-510>518-041200-
NORTHWEST PLATEAU/NORTHCENTRAL MOUNTAINS

CITY           SKY/WX    TMP DP  RH WIND       PRES   REMARKS
FARMINGTON     PTCLDY    63  46  54 E8        30.16R
LOS ALAMOS     CLEAR     63  42  47 SW5       30.28R
SANTA FE       CLEAR     56  48  74 NE8       30.21R
TAOS           CLEAR     52  37  58 E6        30.29S
ANGEL FIRE     FAIR      40  39  97 CALM      30.39R

$$
NMZ402-403-502-505>509-041200-
WESTCENTRAL MOUNTAINS/SOUTHWEST MOUNTAINS

CITY           SKY/WX    TMP DP  RH WIND       PRES   REMARKS
GALLUP         CLEAR     56  51  84 CALM      30.25R
GRANTS         CLEAR     52  52  98 NW3       30.26S
SILVER CITY      N/A     63  57  82 N10       30.18S

$$
NMZ407-409-411-412-041200-
SOUTHERN DESERTS

CITY           SKY/WX    TMP DP  RH WIND       PRES   REMARKS
LORDSBURG      FAIR      68  57  68 S6        30.08R
DEMING         CLEAR     68  60  75 NW6       30.08R
LAS CRUCES     CLEAR     66  64  90 CALM      30.10R
ALAMOGORDO     PTCLDY    73  57  56 CALM      30.08S
T OR C         CLEAR     69  60  73 CALM      30.12R

$$
NMZ519>523-041200-
CENTRAL VALLEYS/CENTRAL HIGHLANDS

CITY           SKY/WX    TMP DP  RH WIND       PRES   REMARKS
ALBUQUERQUE    PTCLDY    68  48  48 CALM      30.15S
DOUBLE EAGLE   CLEAR     56  51  84 CALM      30.19R
MORIARTY ARPT    N/A     55  49  80 CALM      30.22R
CLINES CORNERS CLEAR     59  54  83 NE8       30.25R
BELEN          FAIR      62  48  59 CALM      30.15R
SOCORRO        FAIR      65  54  67 S3        30.12R

$$
NMZ524>526-539-540-041200-
SOUTHCENTRAL MOUNTAINS

CITY           SKY/WX    TMP DP  RH WIND       PRES   REMARKS
RUIDOSO          N/A    N/A N/A N/A MISG        N/A

$$
NMZ527>531-041200-
NORTHEAST HIGHLANDS/NORTHEAST PLAINS

CITY           SKY/WX    TMP DP  RH WIND       PRES   REMARKS
RATON          CLEAR     55  53  93 E3        30.20S
CLAYTON        CLEAR     61  57  87 SW9       30.11S

$$
NMZ532>537-041200-
EASTCENTRAL PLAINS

CITY           SKY/WX    TMP DP  RH WIND       PRES   REMARKS
TUCUMCARI      CLEAR     66  63  90 E7        30.06S
CANNON AFB     CLEAR     62  61  96 NE6       30.08R
CLOVIS AIRPORT CLEAR     63  59  88 NE7       30.09S

$$
NMZ028-029-538-041200-
SOUTHEAST PLAINS

CITY           SKY/WX    TMP DP  RH WIND       PRES   REMARKS
ROSWELL        PTCLDY    66  62  87 CALM      30.02R
ARTESIA        CLEAR     66  66 100 S10       30.02F
CARLSBAD       CLEAR     68  66  93 SE7       30.01R
HOBBS            N/A    N/A N/A N/A MISG        N/A


$$


USA.gov is the U.S. government's official web portal to all federal, state and local government web resources and services.